Cloquet, MN

8:28 PM CST on December 15, 2019 (GMT -0600)
Cloquet Carlton County

Weather History for KCOQ - October, 2019

Change the Weather History Date:

Monday, October 14, 2019

  Actual Average Record
Temperature  
Mean Temperature 38 °F -  
Max Temperature 48 °F 51 °F 64 °F (2005)
Min Temperature 28 °F 34 °F 26 °F (2004)
Degree Days  
Heating Degree Days 27    
Moisture  
Dew Point 29 °F    
Average Humidity 72    
Maximum Humidity 93    
Minimum Humidity 40    
Precipitation  
Precipitation 0.00 in - - ()
Sea Level Pressure  
Sea Level Pressure 29.91 in    
Wind  
Wind Speed 6 mph ()    
Max Wind Speed 12 mph    
Max Gust Speed 17 mph    
Visibility 10.0 miles    
Events      
Averages and records for this station are not official NWS values.
T = Trace of Precipitation, MM = Missing Value Source: Averaged Metar Reports

Daily Weather History Graph

Daily Weather History Graph

Search for Another Location

Airport or City:

Astronomy

Oct. 14, 2019 Rise Set
Actual Time 7:26 AM CDT 6:25 PM CDT
Civil Twilight 6:55 AM CDT 6:55 PM CDT
Nautical Twilight 6:20 AM CDT 7:30 PM CDT
Astronomical Twilight 5:45 AM CDT 8:05 PM CDT
Moon 7:14 PM CDT (10/14) 7:57 AM CDT (10/14)
Length of Visible Light 12h 00m
Length of Day
10h 59m
Full, 99% of the Moon is Illuminated
Oct 14
Full
Oct 21
Last Quarter
Oct 27
New
Nov 4
First Quarter
Nov 12
Full

Hourly Weather History & Observations

Time (CDT) Temp. Windchill Dew Point Humidity Pressure Visibility Wind Dir Wind Speed Gust Speed Precip Events Conditions
12:15 AM 32.0 °F 24.8 °F 28.4 °F 87% 29.85 in 10.0 mi West 8.1 mph - N/A   Clear
12:16 AM 32.0 °F 25.6 °F 28.4 °F 87% 29.85 in 10.0 mi West 6.9 mph - N/A   Clear
12:35 AM 32.0 °F 25.6 °F 28.4 °F 87% 29.85 in 10.0 mi West 6.9 mph - N/A   Clear
12:36 AM 32.0 °F 25.6 °F 28.4 °F 87% 29.85 in 10.0 mi West 6.9 mph - N/A   Clear
12:55 AM 32.0 °F 24.8 °F 28.4 °F 87% 29.85 in 10.0 mi West 8.1 mph - N/A   Clear
12:56 AM 32.0 °F 25.6 °F 28.4 °F 87% 29.85 in 10.0 mi West 6.9 mph - N/A   Clear
1:15 AM 30.2 °F 24.3 °F 28.4 °F 93% 29.86 in 10.0 mi West 5.8 mph - N/A   Clear
1:35 AM 32.0 °F 25.6 °F 28.4 °F 87% 29.86 in 10.0 mi West 6.9 mph - N/A   Clear
1:55 AM 30.2 °F 23.4 °F 28.4 °F 93% 29.86 in - West 6.9 mph - N/A   Clear
1:56 AM 30.2 °F 23.4 °F 28.4 °F 93% 29.86 in 10.0 mi West 6.9 mph - N/A   Clear
2:15 AM 32.0 °F 25.6 °F 28.4 °F 87% 29.86 in 10.0 mi West 6.9 mph - N/A   Clear
2:16 AM 32.0 °F 24.2 °F 28.4 °F 87% 29.86 in 10.0 mi West 9.2 mph - N/A   Clear
2:35 AM 30.2 °F 22.6 °F 28.4 °F 93% 29.87 in 10.0 mi West 8.1 mph - N/A   Clear
2:55 AM 30.2 °F 24.3 °F 28.4 °F 93% 29.87 in 10.0 mi West 5.8 mph - N/A   Clear
2:56 AM 30.2 °F 23.4 °F 28.4 °F 93% 29.87 in 10.0 mi West 6.9 mph - N/A   Clear
3:15 AM 30.2 °F 23.4 °F 28.4 °F 93% 29.87 in 10.0 mi WNW 6.9 mph - N/A   Clear
3:35 AM 30.2 °F 22.6 °F 28.4 °F 93% 29.88 in 10.0 mi WNW 8.1 mph - N/A   Scattered Clouds
3:55 AM 32.0 °F 23.6 °F 28.4 °F 87% 29.89 in 10.0 mi West 10.4 mph 17.3 mph N/A   Overcast
3:56 AM 32.0 °F 23.0 °F 28.4 °F 87% 29.89 in 10.0 mi West 11.5 mph 17.3 mph N/A   Overcast
4:15 AM 32.0 °F 23.0 °F 28.4 °F 87% 29.89 in 10.0 mi West 11.5 mph 16.1 mph N/A   Overcast
4:16 AM 32.0 °F 23.6 °F 28.4 °F 87% 29.89 in 10.0 mi West 10.4 mph 16.1 mph N/A   Overcast
4:35 AM 32.0 °F 25.6 °F 28.4 °F 87% 29.89 in 10.0 mi West 6.9 mph - N/A   Overcast
4:36 AM 32.0 °F 24.8 °F 28.4 °F 87% 29.89 in 10.0 mi West 8.1 mph - N/A   Overcast
4:55 AM 32.0 °F 27.5 °F 28.4 °F 87% 29.89 in 10.0 mi West 4.6 mph - N/A   Mostly Cloudy
5:15 AM 30.2 °F 25.4 °F 28.4 °F 93% 29.89 in 10.0 mi West 4.6 mph - N/A   Clear
5:35 AM 30.2 °F 26.7 °F 28.4 °F 93% 29.89 in 10.0 mi West 3.5 mph - N/A   Clear
5:55 AM 30.2 °F 23.4 °F 26.6 °F 86% 29.90 in 10.0 mi West 6.9 mph - N/A   Clear
6:15 AM 30.2 °F 23.4 °F 26.6 °F 86% 29.90 in 10.0 mi West 6.9 mph - N/A   Clear
6:35 AM 28.4 °F 23.3 °F 26.6 °F 93% 29.91 in 10.0 mi West 4.6 mph - N/A   Clear
6:55 AM 28.4 °F 23.3 °F 26.6 °F 93% 29.92 in 10.0 mi WNW 4.6 mph - N/A   Scattered Clouds
7:15 AM 30.2 °F 25.4 °F 28.4 °F 93% 29.92 in 10.0 mi West 4.6 mph - N/A   Mostly Cloudy
7:16 AM 30.2 °F 25.4 °F 28.4 °F 93% 29.92 in 10.0 mi West 4.6 mph - N/A   Mostly Cloudy
7:35 AM 32.0 °F 26.4 °F 28.4 °F 87% 29.92 in 10.0 mi West 5.8 mph - N/A   Overcast
7:55 AM 32.0 °F 25.6 °F 28.4 °F 87% 29.92 in 10.0 mi WNW 6.9 mph - N/A   Overcast
7:56 AM 32.0 °F 25.6 °F 28.4 °F 87% 29.92 in 10.0 mi West 6.9 mph - N/A   Overcast
8:15 AM 33.8 °F 27.0 °F 30.2 °F 87% 29.92 in 10.0 mi West 8.1 mph - N/A   Overcast
8:16 AM 33.8 °F 27.7 °F 30.2 °F 87% 29.92 in 10.0 mi West 6.9 mph - N/A   Overcast
8:35 AM 33.8 °F 28.6 °F 30.2 °F 87% 29.93 in 10.0 mi West 5.8 mph - N/A   Overcast
8:55 AM 33.8 °F 27.7 °F 30.2 °F 87% 29.94 in 10.0 mi WNW 6.9 mph - N/A   Overcast
8:56 AM 33.8 °F 27.0 °F 30.2 °F 87% 29.94 in 10.0 mi WNW 8.1 mph - N/A   Overcast
9:15 AM 33.8 °F 27.7 °F 30.2 °F 87% 29.93 in 10.0 mi West 6.9 mph - N/A   Overcast
9:35 AM 33.8 °F 26.4 °F 30.2 °F 87% 29.94 in 10.0 mi West 9.2 mph - N/A   Overcast
9:55 AM 35.6 °F 29.2 °F 30.2 °F 81% 29.94 in 10.0 mi WNW 8.1 mph - N/A   Overcast
10:15 AM 35.6 °F 29.2 °F 30.2 °F 81% 29.94 in 10.0 mi WNW 8.1 mph - N/A   Overcast
10:35 AM 37.4 °F 30.3 °F 30.2 °F 75% 29.95 in 10.0 mi West 10.4 mph - N/A   Mostly Cloudy
10:36 AM 37.4 °F 30.8 °F 30.2 °F 75% 29.95 in 10.0 mi West 9.2 mph - N/A   Mostly Cloudy
10:55 AM 37.4 °F 32.8 °F 30.2 °F 75% 29.95 in 10.0 mi West 5.8 mph - N/A   Scattered Clouds
11:15 AM 37.4 °F 31.4 °F 30.2 °F 75% 29.95 in 10.0 mi West 8.1 mph - N/A   Scattered Clouds
11:16 AM 39.2 °F 35.0 °F 30.2 °F 70% 29.95 in 10.0 mi West 5.8 mph - N/A   Scattered Clouds
11:35 AM 41.0 °F 35.8 °F 30.2 °F 65% 29.95 in 10.0 mi WSW 8.1 mph - N/A   Scattered Clouds
11:36 AM 41.0 °F 35.8 °F 30.2 °F 65% 29.95 in 10.0 mi West 8.1 mph - N/A   Scattered Clouds
11:55 AM 42.8 °F 38.6 °F 30.2 °F 61% 29.95 in 10.0 mi WSW 6.9 mph - N/A   Scattered Clouds
12:15 PM 32.0 °F 24.2 °F - N/A% 29.94 in 10.0 mi SW 9.2 mph - N/A   Scattered Clouds
12:16 PM 32.0 °F 23.0 °F - N/A% 29.94 in 10.0 mi SW 11.5 mph - N/A   Scattered Clouds
12:35 PM 44.6 °F 39.7 °F 28.4 °F 53% 29.94 in 10.0 mi West 9.2 mph - N/A   Clear
12:36 PM 44.6 °F 39.7 °F 28.4 °F 53% 29.94 in 10.0 mi West 9.2 mph - N/A   Clear
12:55 PM 44.6 °F 39.2 °F 26.6 °F 49% 29.93 in 10.0 mi West 10.4 mph - N/A   Clear
12:56 PM 44.6 °F 38.8 °F 26.6 °F 49% 29.94 in 10.0 mi West 11.5 mph - N/A   Clear
1:15 PM 44.6 °F 40.7 °F 24.8 °F 46% 29.93 in 10.0 mi West 6.9 mph - N/A   Clear
1:16 PM 44.6 °F 40.7 °F 24.8 °F 46% 29.93 in 10.0 mi West 6.9 mph - N/A   Clear
1:35 PM 46.4 °F 41.5 °F 26.6 °F 46% 29.93 in 10.0 mi SW 10.4 mph 16.1 mph N/A   Clear
1:55 PM 46.4 °F 42.9 °F 26.6 °F 46% 29.92 in 10.0 mi West 6.9 mph - N/A   Clear
2:15 PM 46.4 °F 41.9 °F 26.6 °F 46% 29.92 in 10.0 mi WSW 9.2 mph - N/A   Clear
2:16 PM 46.4 °F 42.9 °F 26.6 °F 46% 29.92 in 10.0 mi SW 6.9 mph - N/A   Clear
2:35 PM 46.4 °F 43.5 °F 26.6 °F 46% 29.91 in 10.0 mi WSW 5.8 mph - N/A   Clear
2:36 PM 46.4 °F 43.5 °F 26.6 °F 46% 29.91 in 10.0 mi West 5.8 mph - N/A   Clear
2:55 PM 48.2 °F - 26.6 °F 43% 29.91 in 10.0 mi South 8.1 mph - N/A   Clear
3:15 PM 48.2 °F - 24.8 °F 40% 29.90 in 10.0 mi SSW 9.2 mph - N/A   Clear
3:35 PM 48.2 °F - 26.6 °F 43% 29.90 in 10.0 mi West 5.8 mph - N/A   Clear
3:55 PM 48.2 °F - 24.8 °F 40% 29.90 in 10.0 mi WSW 5.8 mph - N/A   Clear
4:15 PM 48.2 °F - 24.8 °F 40% 29.90 in 10.0 mi SW 5.8 mph - N/A   Clear
4:35 PM 48.2 °F - 24.8 °F 40% 29.90 in 10.0 mi SW 4.6 mph - N/A   Clear
4:55 PM 46.4 °F 43.5 °F 24.8 °F 43% 29.90 in 10.0 mi SW 5.8 mph - N/A   Clear
4:56 PM 46.4 °F 44.3 °F 24.8 °F 43% 29.89 in 10.0 mi SW 4.6 mph - N/A   Clear
5:15 PM 46.4 °F 42.9 °F 24.8 °F 43% 29.90 in 10.0 mi WSW 6.9 mph - N/A   Clear
5:35 PM 48.2 °F - 24.8 °F 40% 29.90 in 10.0 mi WSW 5.8 mph - N/A   Clear
5:55 PM 46.4 °F 45.2 °F 26.6 °F 46% 29.90 in 10.0 mi WSW 3.5 mph - N/A   Clear
5:56 PM 46.4 °F 45.2 °F 26.6 °F 46% 29.90 in 10.0 mi WSW 3.5 mph - N/A   Clear
6:15 PM 44.6 °F 43.1 °F 26.6 °F 49% 29.90 in 10.0 mi WSW 3.5 mph - N/A   Clear
6:35 PM 42.8 °F - 28.4 °F 57% 29.91 in 10.0 mi Calm Calm - N/A   Clear
6:36 PM 42.8 °F - 28.4 °F 57% 29.91 in 10.0 mi Calm Calm - N/A   Clear
6:55 PM 41.0 °F - 30.2 °F 65% 29.91 in 10.0 mi Calm Calm - N/A   Scattered Clouds
7:15 PM 41.0 °F - 30.2 °F 65% 29.91 in 10.0 mi Calm Calm - N/A   Overcast
7:16 PM 41.0 °F - 30.2 °F 65% 29.91 in 10.0 mi Calm Calm - N/A   Overcast
7:35 PM 39.2 °F - 30.2 °F 70% 29.91 in 10.0 mi Calm Calm - N/A   Overcast
7:55 PM 41.0 °F - 30.2 °F 65% 29.91 in 10.0 mi Calm Calm - N/A   Overcast
8:15 PM 39.2 °F - 32.0 °F 75% 29.91 in 10.0 mi Calm Calm - N/A   Overcast
8:35 PM 41.0 °F - 30.2 °F 65% 29.91 in 10.0 mi Calm Calm - N/A   Overcast
8:55 PM 39.2 °F - 30.2 °F 70% 29.92 in 10.0 mi Calm Calm - N/A   Mostly Cloudy
9:35 PM 41.0 °F - 28.4 °F 61% 29.92 in 10.0 mi Calm Calm - N/A   Mostly Cloudy
9:55 PM 41.0 °F - 30.2 °F 65% 29.92 in 10.0 mi Calm Calm - N/A   Clear
9:56 PM 41.0 °F - 30.2 °F 65% 29.92 in 10.0 mi Calm Calm - N/A   Clear
10:15 PM 39.2 °F - 30.2 °F 70% 29.93 in 10.0 mi Calm Calm - N/A   Scattered Clouds
10:16 PM 39.2 °F - 30.2 °F 70% 29.93 in 10.0 mi Calm Calm - N/A   Scattered Clouds
10:35 PM 39.2 °F - 32.0 °F 75% 29.93 in 10.0 mi Calm Calm - N/A   Clear
10:55 PM 37.4 °F - 33.8 °F 87% 29.93 in 10.0 mi Calm Calm - N/A   Clear
10:56 PM 37.4 °F - 32.0 °F 81% 29.93 in 10.0 mi Calm Calm - N/A   Clear
11:15 PM 37.4 °F - 32.0 °F 81% 29.93 in 10.0 mi Calm Calm - N/A   Mostly Cloudy
11:35 PM 37.4 °F - 30.2 °F 75% 29.93 in 10.0 mi Calm Calm - N/A   Scattered Clouds
11:36 PM 37.4 °F - 30.2 °F 75% 29.93 in 10.0 mi Calm Calm - N/A   Scattered Clouds
11:55 PM 39.2 °F - 30.2 °F 70% 29.93 in 10.0 mi Calm Calm - N/A   Mostly Cloudy
11:56 PM 39.2 °F - 30.2 °F 70% 29.93 in 10.0 mi Calm Calm - N/A   Mostly Cloudy